Regional Weather Roundup
Issued by NWS State College, PA

Current Version | Previous Version | Text Only | Print | Product List | Glossary On
Versions: 1 2 3 4 5 6 7 8 9 10 11 12 13 14 15 16 17 18 19 20 21 22 23 24 25 26 27 28 29 30 31 32 33 34 35 36 37 38 39 40 41 42 43 44 45 46 47 48 49 50
000
ASUS41 KCTP 031410
RWRCTP

REGIONAL WEATHER ROUNDUP
NATIONAL WEATHER SERVICE STATE COLLEGE PA
1000 AM EDT SUN MAY 03 2015

Note: "fair" indicates few or no clouds below 12,000 feet with no
significant weather and/or obstructions to visibility.

* = STATION THAT DOES NOT REPORT PRECIPITATION /E.G. RAIN...SNOW...ETC/
    THUNDER OR FOG.

PAZ002>004-007>009-013>016-020>023-029>032-031500-
WESTERN PENNSYLVANIA

CITY           SKY/WX    TMP DP  RH WIND       PRES   REMARKS
ERIE           SUNNY     68  38  33 SW9       30.09R
MEADVILLE      SUNNY     66  40  38 W6        30.11S
FRANKLIN*      SUNNY     66  41  39 W6        30.14R
NEW CASTLE     FAIR      66  48  52 CALM      30.13S
BEAVER COUNTY  NOT AVBL
BUTLER*        SUNNY     64  45  48 W6        30.15S
PITTSBURGH INT MOSUNNY   68  43  40 CALM      30.13S
PITTSBURGH     SUNNY     64  40  41 VRB5      30.13S
INDIANA*       PTSUNNY   63  43  48 SW8       30.18R
LATROBE        SUNNY    N/A N/A N/A SW16      30.16S
WASHINGTON CO* SUNNY     66  45  45 CALM      30.16S
$$

PAZ004>006-010>012-017>019-024>028-033>037-041-042-045-046-049>053-031500-
CENTRAL PENNSYLVANIA

CITY           SKY/WX    TMP DP  RH WIND       PRES   REMARKS
BRADFORD       SUNNY     64  34  32 SW7       30.12F
DUBOIS         SUNNY     66  38  35 SW9       30.12S
CLEARFIELD     SUNNY     61  39  44 S9        30.13F
JOHNSTOWN      SUNNY     62  40  44 SW8       30.15R
ALTOONA        SUNNY     65  40  39 SW7       30.14S
STATE COLLEGE  SUNNY     64  39  39 CALM      30.13S
WILLIAMSPORT   SUNNY     61  36  39 SW8       30.11F
SELINSGROVE    SUNNY     65  46  50 CALM      30.12F
FT INDIANTOWN  SUNNY     67  47  48 S5        30.11S
CAPITAL CITY   SUNNY     68  41  37 W7        30.12S
HARRISBURG     MOSUNNY   68  42  38 NW8       30.11S
YORK           SUNNY     68  42  38 VRB3      30.12R
$$

PAZ038>040-043-044-047-048-054-055-060>062-067>071-031500-
EASTERN PENNSYLVANIA

CITY           SKY/WX    TMP DP  RH WIND       PRES   REMARKS
SCRANTON       SUNNY     63  35  35 VRB5      30.10F
MOUNT POCONO   SUNNY     66  33  29 VRB5      30.11S
ALLENTOWN      SUNNY     64  47  53 CALM      30.10S
QUAKERTOWN*    SUNNY     68  39  34 N5        30.10S
READING        SUNNY     64  48  56 CALM      30.10S
LANCASTER      SUNNY     64  48  56 NW3       30.11R
COATESVILLE    SUNNY     68  45  42 CALM      30.11S
POTTSTOWN      SUNNY     63  48  58 CALM      30.11S
BLUE BELL      SUNNY     64  50  59 CALM      30.09S
DOYLESTOWN     SUNNY     65  32  29 CALM      30.09S
WILLOW GROVE   NOT AVBL
NORTH PHILA    SUNNY     65  44  46 CALM      30.12S
PHILADELPHIA   MOSUNNY   61  47  59 S5        30.11S
$$



USA.gov is the U.S. government's official web portal to all federal, state and local government web resources and services.